User: anonymous   Login
Location: Charleston
(38.3500°N, 81.6330°W)
Time: 05:18:10
(UTC-05:00)
Language:

Cosmos 2228 - Orbit

View from above orbital plane
View from above orbital plane
View from above satellite
View from above satellite

Ground track
Ground track

The orbit data is extracted from the following two-line orbital elements,

1 22286U 92094A   14325.82502981  .00001970  00000-0  22065-3 0  4871
2 22286 082.5204 178.2079 0021043 358.3442 001.7701 14.86250462183024
Epoch (UTC): 21 November 2014 19:48:02
Eccentricity: 0.0021043
inclination: 82.5204°
perigee height: 595 km
apogee height: 624 km
right ascension of ascending node: 178.2079°
argument of perigee: 358.3442°
revolutions per day: 14.86250462
mean anomaly at epoch: 1.7701°
orbit number at epoch: 18302

The dashed part of the orbit path shows where the satellite is in the earth's shadow,  

DLR